FW3705 Weather Reports


Display with metric or nautical units.
time (UTC)temp
F
wind
direction
speed
MPH
gust
MPH
rain 1hr
in
rain 24hr
in
rain mn
in
humidity
%
barometer
mb
20260507223006 61 244 0.0 5.0 0.00 0.00 0.00 19 1009.6
20260507221510 62 67 0.0 5.0 0.00 0.00 0.00 18 1009.4
20260507220005 62 278 0.0 3.0 0.00 0.00 0.00 19 1009.3
20260507214505 63 267 0.0 4.0 0.00 0.00 0.00 20 1009.2
20260507213007 63 283 1.0 7.0 0.00 0.00 0.00 20 1009.0
20260507211504 63 292 1.0 8.0 0.00 0.00 0.00 19 1009.1
20260507210004 63 289 1.0 7.0 0.00 0.00 0.00 19 1008.9
20260507204501 63 292 3.0 9.0 0.00 0.00 0.00 18 1009.0
20260507203001 64 257 3.0 9.0 0.00 0.00 0.00 17 1009.0
20260507201617 64 290 1.0 10.0 0.00 0.00 0.00 17 1009.0
20260507200110 64 269 2.0 7.0 0.00 0.00 0.00 17 1009.1
20260507194558 65 290 2.0 8.0 0.00 0.00 0.00 16 1009.3
20260507193059 65 277 1.0 7.0 0.00 0.00 0.00 18 1009.4
20260507191600 65 294 0.0 8.0 0.00 0.00 0.00 18 1009.5
20260507190103 65 239 1.0 8.0 0.00 0.00 0.00 20 1009.5
20260507184559 65 247 0.0 10.0 0.00 0.00 0.00 20 1009.7
20260507183052 65 284 1.0 7.0 0.00 0.00 0.00 19 1009.9
20260507181549 65 225 0.0 6.0 0.00 0.00 0.00 24 1009.9
20260507180051 64 261 0.0 9.0 0.00 0.00 0.00 23 1010.1
20260507174550 65 288 0.0 8.0 0.00 0.00 0.00 27 1010.0
20260507173046 65 228 0.0 5.0 0.00 0.00 0.00 31 1009.9
20260507171545 64 206 1.0 8.0 0.00 0.00 0.00 32 1010.0
20260507170044 63 288 0.0 6.0 0.00 0.00 0.00 34 1010.2
20260507164556 63 277 0.0 2.0 0.00 0.00 0.00 37 1010.2
20260507163043 64 246 0.0 3.0 0.00 0.00 0.00 35 1010.5
20260507161540 63 225 0.0 2.0 0.00 0.00 0.00 38 1010.6
20260507160039 62 267 2.0 9.0 0.00 0.00 0.00 37 1010.8
20260507154540 62 222 2.0 7.0 0.00 0.00 0.00 37 1010.9
20260507153034 61 199 0.0 5.0 0.00 0.00 0.00 38 1010.9
20260507151533 61 248 2.0 5.0 0.00 0.00 0.00 36 1011.0
20260507150030 61 250 0.0 5.0 0.00 0.00 0.00 38 1011.2
20260507144531 60 62 0.0 7.0 0.00 0.00 0.00 40 1011.4
20260507143031 60 275 0.0 3.0 0.00 0.00 0.00 40 1011.5
20260507141524 58 273 0.0 0.0 0.00 0.00 0.00 44 1011.5
20260507140027 57 273 0.0 3.0 0.00 0.00 0.00 47 1011.4
20260507134527 57 271 0.0 2.0 0.00 0.00 0.00 49 1011.4
20260507133024 55 266 0.0 2.0 0.00 0.00 0.00 51 1011.7
20260507131523 54 309 0.0 2.0 0.00 0.00 0.00 53 1011.8
20260507130018 53 292 0.0 4.0 0.00 0.00 0.00 57 1012.1
20260507124524 52 294 0.0 3.0 0.00 0.00 0.00 61 1012.0
20260507123015 50 298 0.0 1.0 0.00 0.00 0.00 65 1011.8
20260507121515 49 298 0.0 0.0 0.00 0.00 0.00 69 1011.8
20260507120017 49 298 0.0 0.0 0.00 0.00 0.00 69 1011.8
20260507114515 49 298 0.0 0.0 0.00 0.00 0.00 69 1011.7
20260507113015 48 298 0.0 0.0 0.00 0.00 0.00 69 1011.7
20260507111512 49 298 0.0 0.0 0.00 0.00 0.00 70 1011.6
20260507110012 49 298 0.0 0.0 0.00 0.00 0.00 70 1011.7
20260507104512 49 298 0.0 0.0 0.00 0.00 0.00 69 1011.8
20260507103012 49 298 0.0 0.0 0.00 0.00 0.00 69 1011.2
20260507101514 49 298 0.0 0.0 0.00 0.00 0.00 69 1011.5
20260507100007 49 298 0.0 0.0 0.00 0.00 0.00 69 1011.1
20260507094504 49 286 0.0 2.0 0.00 0.00 0.00 68 1010.9
20260507093002 50 286 0.0 1.0 0.00 0.00 0.00 68 1011.0
20260507091600 50 284 0.0 1.0 0.00 0.00 0.00 67 1011.1
20260507084601 51 291 0.0 0.0 0.00 0.00 0.00 67 1011.0
20260507083056 51 291 0.0 0.0 0.00 0.00 0.00 66 1010.7
20260507081555 52 291 0.0 0.0 0.00 0.00 0.00 65 1010.8
20260507080111 52 287 0.0 4.0 0.00 0.00 0.00 64 1010.8
20260507074551 53 287 1.0 10.0 0.00 0.00 0.00 62 1010.9
20260507073052 53 136 0.0 3.0 0.00 0.00 0.00 63 1010.0
20260507071546 53 286 0.0 0.0 0.00 0.00 0.00 65 1010.1
20260507070045 54 286 0.0 3.0 0.00 0.00 0.00 64 1010.0
20260507064544 54 288 0.0 1.0 0.00 0.00 0.00 64 1010.2
20260507063041 55 288 0.0 2.0 0.00 0.00 0.00 65 1010.1
20260507061539 55 289 0.0 2.0 0.00 0.00 0.00 66 1010.1
20260507060042 55 289 0.0 3.0 0.00 0.00 0.00 67 1010.1
20260507054538 56 298 0.0 4.0 0.00 0.00 0.00 69 1010.3
20260507053033 57 337 0.0 0.0 0.00 0.00 0.00 69 1010.2
20260507051532 57 341 0.0 2.0 0.00 0.00 0.00 69 1010.1
20260507050029 58 217 0.0 2.0 0.00 0.00 0.00 72 1010.2
20260507044524 59 215 1.0 4.0 0.00 0.00 0.00 74 1010.1
20260507043025 59 217 0.0 3.0 0.00 0.00 0.00 74 1010.0
20260507041522 59 213 0.0 1.0 0.00 0.00 0.00 74 1010.1
20260507040019 59 223 0.0 2.0 0.00 0.00 0.00 74 1010.3
20260507034520 59 220 0.0 3.0 0.00 0.00 0.00 74 1010.6
20260507033021 59 251 0.0 3.0 0.00 0.00 0.00 73 1010.0
20260507031518 59 271 0.0 3.0 0.00 0.00 0.00 73 1009.5
20260507030019 59 259 0.0 6.0 0.00 0.00 0.00 73 1009.3
20260507024516 59 192 0.0 5.0 0.00 0.00 0.00 73 1009.5
20260507023014 59 204 0.0 3.0 0.00 0.00 0.00 73 1009.6
20260507021514 59 251 0.0 3.0 0.00 0.00 0.00 74 1009.7
20260507020013 58 241 1.0 7.0 0.00 0.00 0.00 74 1009.7
20260507014515 58 208 0.0 4.0 0.00 0.00 0.00 74 1009.9
20260507013020 58 223 0.0 3.0 0.00 0.00 0.00 74 1010.1
20260507011513 58 219 0.0 5.0 0.00 0.00 0.00 74 1010.1
20260507010013 57 198 0.0 3.0 0.00 0.00 0.00 74 1010.2
20260507004509 57 260 0.0 2.0 0.00 0.00 0.00 74 1010.2
20260507003008 57 169 0.0 4.0 0.00 0.00 0.00 74 1010.2
20260507001510 57 119 0.0 6.0 0.00 0.00 0.00 73 1010.0
20260507000007 57 202 0.0 3.0 0.00 0.00 0.00 73 1010.0
20260506234506 57 203 0.0 3.0 0.00 0.00 0.00 72 1010.0
20260506233008 57 121 0.0 7.0 0.00 0.00 0.00 71 1010.0
20260506231504 58 164 0.0 6.0 0.00 0.00 0.00 70 1010.2
20260506230001 58 122 0.0 4.0 0.00 0.00 0.00 70 1010.1
20260506224600 58 197 0.0 10.0 0.00 0.00 0.00 69 1010.2